Regional Weather Roundup
Issued by NWS

Home | Current Version | Previous Version | Text Only | Print | Product List | Glossary On
Versions: 1 2 3 4 5 6 7 8 9 10 11 12 13 14 15 16 17 18 19 20 21 22 23 24 25 26 27 28 29 30 31 32 33 34 35 36 37 38 39 40 41 42 43 44 45 46 47 48 49 50
000
ASUS45 KREV 070210
RWRNV
NEVADA REGIONAL WEATHER ROUNDUP
NATIONAL WEATHER SERVICE RENO NV
600 PM PST FRI MAR 06 2015

NOTE: "FAIR" INDICATES FEW OR NO CLOUDS BELOW 12,000 FEET WITH NO
SIGNIFICANT WEATHER AND/OR OBSTRUCTIONS TO VISIBILITY.

NVZ001-003-004-070300-
WESTERN NEVADA

CITY           SKY/WX    TMP DP  RH WIND       PRES   REMARKS
RENO           PTCLDY    58   7  13 E9        30.30S
CARSON CITY    FAIR      55   9  15 NE15      30.30S
MINDEN         FAIR      52  14  22 NW14      30.30
SLIDE MTN        N/A     36   7  30 NE17        N/A
FALLON         CLEAR     54  15  21 NE5       30.29S
LOVELOCK       CLEAR     57  19  22 CALM      30.29S
HAWTHORNE      CLEAR     54  14  20 CALM      30.29S
$$

NVZ002-CAZ072-073-070300-
NORTHERN AND CENTRAL SIERRA

CITY           SKY/WX    TMP DP  RH WIND       PRES   REMARKS
S. LAKE TAHOE  CLEAR     45  22  40 CALM      30.32S
TRUCKEE        CLEAR     50  14  23 CALM      30.32R
SQUAW VLY 8000   N/A     37   9  30 E2          N/A
SUSANVILLE     CLEAR     54  21  28 W3        30.31F
BLUE CANYON    CLEAR     57  33  40 NW3       30.28S
MAMMOTH LAKES  FAIR      48   1  14 CALM      30.33S
BRIDGEPORT     FAIR      47  14  26 W3        30.32R
$$

NVZ030-031-036-070300-
NORTHERN NEVADA

CITY           SKY/WX    TMP DP  RH WIND       PRES   REMARKS
ELKO           CLEAR     51  12  21 E6        30.32F
WINNEMUCCA     CLEAR     51  12  21 N8        30.31S
WENDOVER       CLEAR     50  19  29 CALM      30.37S
$$

NVZ035-037-070300-
CENTRAL NEVADA

CITY           SKY/WX    TMP DP  RH WIND       PRES   REMARKS
ELY            CLEAR     43  21  41 NE7       30.35R
EUREKA           N/A     45  21  38 NW3       30.34R
$$

NVZ013-014-070300-
SOUTH CENTRAL NEVADA

CITY           SKY/WX    TMP DP  RH WIND       PRES   REMARKS
TONOPAH        CLEAR     53  10  18 NW7       30.29S
$$

NVZ017-020-022-070300-
SOUTHERN NEVADA

CITY           SKY/WX    TMP DP  RH WIND       PRES   REMARKS
LAS VEGAS      CLEAR     67  13  12 SE5       30.12F
N. LAS VEGAS   CLEAR     68  11  11 E6        30.15F
NELLIS AFB     CLEAR     67  19  16 NE10      30.14F
HENDERSON      CLEAR     64  17  16 E7        30.18F
MERCURY        CLEAR     63  12  13 E9        30.18S
$$



USA.gov is the U.S. government's official web portal to all federal, state and local government web resources and services.